Regional Weather Roundup
Issued by NWS Grand Forks, ND

Home | Current Version | Previous Version | Text Only | Print | Product List | Glossary Off
Versions: 1 2 3 4 5 6 7 8 9 10 11 12 13 14 15 16 17 18 19 20 21 22 23 24 25 26 27 28 29 30 31 32 33 34 35 36 37 38 39 40 41 42 43 44 45 46 47 48 49 50

000
ASUS43 KFGF 010410
RWRFGF
PRAIRIE TO PINES  WEATHER ROUNDUP
NATIONAL WEATHER SERVICE EASTERN NORTH DAKOTA/GRAND FORKS ND
1000 PM CST SAT FEB 28 2015

 **SATELLITE DATA USED TO AUGMENT SKY COVER AT AUTOMATED STATIONS**
 *****  WEATHER ACROSS EASTERN NORTH DAKOTA  *****

CITY           SKY/WX    TMP DP  RH WIND       PRES   REMARKS
GRAND FORKS    MOCLDY     7   0  73 W10       30.16S WCI  -8
GRAND FRKS AFB MOCLDY     5  -2  72 W10       30.16S WCI -10
GRAND FRKS NWS   N/A      7 N/A N/A W6          N/A  WCI  -3
DEVILS LAKE    CLEAR      5  -2  72 W15       30.13R WCI -13
FARGO          PTCLDY    13   4  67 W15       30.21R WCI  -3
WAHPETON ARPT  CLOUDY    18  10  73 NW14      30.22R WCI   4
$$

 ***** WEATHER ACROSS CENTRAL AND WESTERN NORTH DAKOTA  *****

CITY           SKY/WX    TMP DP  RH WIND       PRES   REMARKS
BISMARCK       CLEAR     10   2  69 W3        30.21R
MINOT          CLEAR      2  -4  76 SW10      30.13S WCI -14
JAMESTOWN      CLEAR      4  -2  76 W8        30.17R WCI  -9
MINOT AFB      CLEAR     -1  -5  83 W8        30.13S WCI -15
GARRISON         N/A     -3  -6  87 W5        30.14F WCI -13
WILLISTON      PTCLDY     2  -3  80 SW3       30.15S
DICKINSON      CLEAR      5  -1  76 W8        30.11S WCI  -8
HETTINGER      PTCLDY     5   0  79 NW5       30.15R WCI  -4
$$

 *****  OTHER AIRPORT OBSERVATIONS IN OUR AREA  *****

CITY           SKY/WX    TMP DP  RH WIND       PRES   REMARKS
WALHALLA         N/A      7   0  72 W12       30.11R WCI  -9
GRAFTON AIRPOR NOT AVBL
VALLEY CITY AR FAIR       5   0  78 W12       30.17S WCI -11
CANDO          FAIR       1  -2  85 W15       30.13R WCI -18
CAVALIER APRT  FAIR       7   0  72 W9        30.12S WCI  -7
GWINNER        CLEAR     12   3  67 NW15      30.21R WCI  -4
ROLLA          FAIR       5   0  78 W16       30.07S WCI -14
 ***** THE ABOVE OBSERVATIONS ARE NON NWS ARE NOT QUALITY
       CONTROLLED AND MAY MIS-REPORT RAIN FOR SNOW...
$$

  *****  WEATHER ACROSS NORTHERN MINNESOTA  *****

CITY           SKY/WX    TMP DP  RH WIND       PRES   REMARKS
FLAG ISLAND    FLURRIES  18  14  86 SW9       30.03S WCI   6
WARROAD        LGT SNOW  18  12  79 W10G16    30.06S WCI   6
ROSEAU         FLURRIES  16  10  79 W12G17    30.07R WCI   3
HALLOCK        NOT AVBL
THF RVR FALLS  PTCLDY     9   3  78 W12       30.12R WCI  -6
BAUDETTE       LGT SNOW  19  15  84 S14       30.04S FOG     WCI   6
WASKISH        FLURRIES  18  14  86 S8        30.08F WCI   7
CROOKSTON      PTCLDY     9   3  78 W9        30.17S WCI  -5
STEPHEN NDAWN    N/A      7   1  78 W9          N/A  WCI  -7
GREENBUSH NDAW   N/A      7   1  78 MISG        N/A
$$
  *****  WEATHER ACROSS CENTRAL AND WEST MINNESOTA  *****

CITY           SKY/WX    TMP DP  RH WIND       PRES   REMARKS
FOSSTON        FLURRIES  12   9  85 W12       30.13R WCI  -2
BEMIDJI        LGT SNOW  17  13  86 S8        30.10F WCI   6
PARK RAPIDS    CLOUDY    17  12  80 S14       30.12F HAZE    WCI   3
ELBOW LAKE     CLOUDY    18  14  85 S13       30.18R WCI   4
WADENA         LGT SNOW  14  10  85 S8        30.15S WCI   3
DETROIT LAKES  LGT SNOW  21  19  93 SW10      30.15R WCI  10
MOORHEAD       PTCLDY    12   9  85 NW14      30.21R WCI  -3
FERGUS FALLS   LGT SNOW  19  14  79 SW7       30.22R WCI  10
MORRIS MN      CLOUDY    19  14  79 S13       30.19R WCI   7
STAPLES        CLOUDY    14  10  85 S10       30.17F WCI   1
$$
  *****  WEATHER ELSEWHERE ACROSS MINNESOTA  *****

CITY           SKY/WX    TMP DP  RH WIND       PRES   REMARKS
DULUTH         MOCLDY    13   2  61 SW14      30.20F WCI  -2
INTRNTL FALLS  CLOUDY    18   8  65 S8G18     30.08F WCI   8
ELY            CLOUDY    14   3  62 S9        30.15F WCI   2
CLOQUET        CLOUDY    12   1  62 S12       30.21F WCI  -2
WHEATON        NOT AVBL
BRAINERD       CLOUDY    14   9  80 S12       30.20F WCI   0
HIBBING        PTCLDY    14   5  67 VRB3      30.17F
ALEXANDRIA     CLOUDY    17  12  80 S15       30.18S HAZE    WCI   2
SAINT CLOUD    CLOUDY    13   7  77 S12       30.26S WCI  -1
MINNEAPOLIS    FAIR      13   2  61 S10       30.34S WCI   0
$$

  *****  WEATHER ACROSS SOUTH DAKOTA  *****

CITY           SKY/WX    TMP DP  RH WIND       PRES   REMARKS
SIOUX FALLS    MOCLDY    19  11  70 S15       30.21S WCI   5
BROOKINGS      NOT AVBL
WATERTOWN      PTCLDY    18  13  80 NW9       30.15R WCI   7
HURON          PTCLDY    14  10  84 NW10      30.23R WCI   1
SISSETON         N/A     18  12  77 N17       30.20R WCI   3
ABERDEEN       CLEAR     11   5  77 N8        30.24R WCI  -1
MITCHELL       CLEAR     17  13  84 NW7       30.25R WCI   8
PIERRE         PTCLDY    12   4  70 N6        30.23R WCI   3
MOBRIDGE       CLEAR      6   2  83 CALM      30.18R
RAPID CITY     MOCLDY    14   8  77 CALM      30.17R
$$

  *****  SOME WEATHER IN NEARBY STATES *****

CITY           SKY/WX    TMP DP  RH WIND       PRES   REMARKS
GLASGOW MT     CLOUDY    19  10  68 W8        30.14S WCI   9
GREAT FALLS MT CLEAR     13   7  77 SW9       30.18R WCI   1
CHEYENNE WY    CLOUDY    18  11  74 SE6       29.95R WCI  10
SCOTTSBLUFF NE PTCLDY    21  12  68 E9        30.08R WCI  11
OMAHA NE       FLURRIES  23  18  81 S10       30.37S WCI  12
DES MOINES IA  FLURRIES  21  17  84 SE6       30.40R WCI  13
DAVENPORT IA   PTCLDY     9   6  88 SE7       30.45F WCI  -2
CHICAGO IL     LGT SNOW  17  14  88 S7        30.49F FOG     WCI   8
EAU CLAIRE WI  PTCLDY    12  -2  53 S7        30.37F WCI   1
LA CROSSE WI   CLOUDY    16   1  51 S12       30.43S WCI   3
$$

  *****  SOME NATIONAL WEATHER *****

CITY           SKY/WX    TMP DP  RH WIND       PRES   REMARKS
LA GUARDIA NY  PTCLDY    27   2  34 SW3       30.75S
RALEIGH NC     PTCLDY    28  15  58 NE5       30.70F WCI  23
ATLANTA GA     CLOUDY    46  30  53 E10       30.55R
NEW ORLEANS LA PTCLDY    57  51  80 E10       30.34S
OKLAHOMA CITY  FRZ DRZL  27  24  89 E6        30.32S FOG     WCI  20
ALBUQUERQUE NM MOCLDY    33  29  85 NW8       29.98R
SALT LAKE CITY CLOUDY    35  32  88 W7        29.87R
LOS ANGELES CA CLOUDY    57  46  66 W10       29.88S
BOISE ID       CLEAR     39  26  59 NW6       29.93R
SEATTLE WA     PTCLDY    45  25  45 N7        30.21R
$$

*** WEATHER ACROSS MANITOBA...SASKATCHEWAN AND ONTARIO ***
                ***ONTARIO***

CITY           SKY/WX    TMP DP  RH WIND       PRES   REMARKS
GERALDTON      PTCLDY    12   5  73 SW12G22   30.16F WCI  -2
THUNDER BAY    CLOUDY    18   5  57 SW6       30.22F WCI   9
SIOUX LOOKOUT  CLOUDY    18   1  49 S8        30.03F WCI   7
TORONTO        PTCLDY    12   1  62 W5        30.61F WCI   4
BIG TROUT LK   PTCLDY     5   0  78 SW7       29.90F WCI  -7
PICKLE LAKE    NOT AVBL
DRYDEN         CLOUDY    18   5  57 SW14      30.01F WCI   4
KENORA         LGT SNOW  18  16  93 W8        30.00F WCI   7
$$
                *** MANITOBA***

CITY           SKY/WX    TMP DP  RH WIND       PRES   REMARKS
BRANDON        CLEAR      0  -6  78 W14       30.08R WCI -19
DAUPHIN        CLEAR      7   1  78 W17       30.02S WCI -12
ISLAND LAKE    PTCLDY    12   3  67 SW7       29.90F WCI   2
PILOT MOUND      N/A      3  -2  78 W9          N/A  WCI -11
THE PAS        PTCLDY     9   7  92 NW10      29.99R WCI  -6
THOMPSON       PTCLDY     5   1  85 W6        29.90S WCI  -6
WINNIPEG       CLEAR      5  -2  72 SW12      30.07S WCI -11
LYNN LAKE      CLEAR      1  -8  66 N9        29.95R WCI -14
CHURCHILL      CLEAR     -9 -17  70 NW25G31   29.90S WCI -37
GILLAM         FLURRIES   5   1  85 NW8       29.86R WCI  -8
$$
                ***SASKATCHEWAN***

CITY           SKY/WX    TMP DP  RH WIND       PRES   REMARKS
ESTEVAN        PTCLDY    -2  -8  78 SW10      30.09S WCI -19
KINDERSLEY     FLURRIES  16  14  93 NW14      30.10S WCI   1
LLOYDMINSTER   CLOUDY    19  14  79 NW13      30.12R WCI   7
PRINCE ALBERT  PTCLDY    14  10  85 NW9       30.06R WCI   2
REGINA         FLURRIES  10   7  85 W15       30.06R WCI  -6
YORKTON        LGT SNOW   9   5  85 W10       30.01R WCI  -6
N. BATTLEFORD  CLOUDY    18  16  93 NW10      30.12R WCI   6
LA RONGE       PTCLDY     9   7  92 W6        30.04R WCI  -1
SASKATOON      NOT AVBL
SWIFT CURRENT  MOCLDY    14  12  92 W14       30.07S WCI  -1
$$
NOTE: THESE ARE AUTOMATED STATIONS WITH LIMITED QUALITY CONTROL
      "FAIR" INDICATES FEW OR NO CLOUDS BELOW 12,000 FEET WITH NO
      SIGNIFICANT WEATHER AND/OR OBSTRUCTIONS TO VISIBILITY.
      SKY/WX - SKY CONDITION AND SIGNIFICANT WEATHER.
      TMP - AIR TEMPERATURE.    DP   - DEWPOINT TEMPERATURE.
      RH  - RELATIVE HUMIDITY.  PRES - PRESSURE.
      HX  - HEAT INDEX.         WCI  - WIND CHILL INDEX.
$



USA.gov is the U.S. government's official web portal to all federal, state and local government web resources and services.